Погода в Полихроно

Греция     40°00′57″N   23°31′27″E
темп.,
°C
ветер,
м/с
пор.,
м/с
влажн.,
%
обл.,
%
осадки,
мм/ч
давл.,
гПа
погр.,
м
9 мая, вс
вс900:00+17вюв367659 0.0 1019288
03:00+17ссв226882 0.0 1020192
06:00+17в236997 0.0 1021482
09:00+16в6760100 0.0 1024990
12:00+17в8847100 0.0 10251012
15:00+19в544917 0.0 10251221
18:00+19в23535 0.0 1024744
21:00+16св11610 0.0 102527
10 мая, пн
пн1000:00+15вюв35700 0.0 1025297
03:00+15ссв34700 0.0 1024305
06:00+14св35610 0.0 1024224
09:00+16всв33520 0.0 1024570
12:00+19св12460 0.0 1024945
15:00+20ююз22420 0.0 10221035
18:00+19ю21434 0.0 1021771
21:00+16ююв11505 0.0 102055
11 мая, вт
вт1100:00+15с12555 0.0 1021145
03:00+15ссв12595 0.0 1019166
06:00+14св126637 0.0 1019142
09:00+16вюв22570 0.0 1019525
12:00+19ююв11500 0.0 1018799
15:00+20юз11500 0.0 1017814
18:00+20юв22531 0.0 1015638
21:00+16ю226312 0.0 1014128
12 мая, ср
ср1200:00+15ю01565 0.0 101462
03:00+15ююв11553 0.0 101279
06:00+14всв01580 0.0 1011101
09:00+17юв12556 0.0 1010458
12:00+20юв44515 0.0 1010648
15:00+20юв545362 0.0 1009576
18:00+19юв55550 0.0 1007329
21:00+16юв46735 0.0 1007232
13 мая, чт
чт1300:00+16в33770 0.0 100794
03:00+16ссв23750 0.0 1007119
06:00+15ссв22740 0.0 1007121
09:00+18с12620 0.0 1008315
12:00+21з22550 0.0 1008618
15:00+23ююз13480 0.0 1007746
18:00+23ю43525 0.0 1007404
21:00+19ююв45725 0.0 1008101